[[{"header":{"parameterUnit":"m.s-1","parameterCategory":1,"la1":30.2991,"la2":30.254,"lo1":-89.0895,"lo2":-89.0444,"dx":0.0017,"dy":0.0017,"nx":28,"ny":28,"refTime":"2023-01-22T03:00:00:Z","depth":0,"parameterNumber":2,"parameterNumberName":"U-component_of_WINDS"},"data":[0,0,0,0,0,0,0,0,0,0,0,0,0,0,0,0,0,0,0,0,0,0,0,0,0,0,0,0,0,0,0,0,0,0,0,0,0,0,0,0,0,0,0,0,0,0,0,0,0,0,0,0,0,0,0,0,0,0,-2.7451,-2.7452,0,-2.752,-2.7521,-2.7522,-2.7409,-2.7405,-2.7401,-2.7397,-2.7474,-2.7479,-2.7485,0,0,0,0,0,0,0,0,0,0,0,0,0,-2.7227,-2.7232,-2.7451,-2.7452,-2.7453,-2.752,-2.7521,-2.7522,-2.7409,-2.7405,-2.74,-2.7396,-2.7472,-2.7479,-2.7486,0,0,0,0,0,0,0,0,0,0,0,0,0,-2.7313,-2.7233,-2.7451,-2.7405,-2.7401,-2.752,-2.7521,-2.7522,-2.741,-2.7405,-2.7399,-2.7393,-2.747,-2.7478,-2.7486,-2.7655,0,0,-2.7512,-2.7516,0,0,0,0,0,0,0,0,-2.7309,-2.7322,-2.7411,-2.7408,-2.7404,-2.745,-2.747,-2.7567,-2.7412,-2.7407,-2.7397,-2.7391,-2.7471,-2.7479,-2.7505,-2.7659,-2.7662,-2.7513,-2.7518,-2.7522,-2.7524,0,0,0,0,0,0,0,-2.7303,-2.7318,-2.7479,-2.7412,-2.7408,-2.7382,-2.7388,-2.7488,-2.7471,-2.7407,-2.7399,-2.7408,-2.7468,-2.7497,-2.7506,-2.7663,-2.7513,-2.752,-2.7526,-2.7529,-2.796,-2.7966,0,0,0,0,0,0,-2.7302,-2.7314,-2.7476,-2.7481,-2.7341,-2.7391,-2.7397,-2.7441,-2.747,-2.7468,-2.7413,-2.7403,-2.7485,-2.7496,-2.7508,-2.7708,-2.7522,-2.753,-2.7535,-2.7953,-2.7961,-2.7968,0,0,0,0,0,0,-2.7297,-2.7317,-2.7474,-2.7395,-2.7413,-2.7401,-2.7451,-2.7446,-2.7474,-2.7474,-2.7471,-2.7446,-2.7481,-2.7496,-2.7619,-2.7709,-2.7534,-2.7541,-2.7946,-2.7956,-2.7965,-2.811,0,0,0,0,0,0,-2.7291,-2.7316,-2.7379,-2.7397,-2.7418,-2.7583,-2.7457,-2.7451,-2.7488,-2.7476,-2.7504,-2.7503,-2.7478,-2.7607,-2.7628,-2.7718,-2.7548,-2.7938,-2.795,-2.7961,-2.8097,-2.8123,-2.8145,0,0,0,0,0,-2.7284,-2.7419,-2.7383,-2.7403,-2.7496,-2.7588,-2.76,-2.7566,-2.7496,-2.756,-2.756,-2.7502,-2.7696,-2.7621,-2.7643,-2.7737,-2.7932,-2.7947,-2.7961,-2.8086,-2.8118,-2.8145,0,0,0,0,0,0,-2.7414,-2.742,-2.7381,-2.7525,-2.7557,-2.7569,-2.7648,-2.7601,-2.7655,-2.7641,-2.7599,-2.7606,-2.7739,-2.775,-2.7666,-2.7902,-2.7802,-2.7822,-2.789,-2.792,-2.7944,-2.794,-2.7555,0,0,0,0,0,-2.7459,-2.7532,-2.7534,-2.7661,-2.7679,-2.7661,-2.77,-2.7671,-2.7703,-2.7717,-2.7725,-2.776,-2.7828,-2.7875,-2.7938,-2.8097,-2.8103,-2.8173,-2.8197,-2.8217,-2.8235,-2.8321,-2.8353,-2.8015,-2.8015,-2.8015,0,0,-2.7554,-2.7566,-2.7615,-2.7687,-2.7708,-2.7786,-2.7673,-2.776,-2.7818,-2.773,-2.7847,-2.7855,-2.789,-2.8033,-2.8096,-2.8046,-2.8329,-2.8235,-2.8251,-2.8258,-2.8339,-2.8371,-2.84,-2.8025,-2.8023,-2.8021,0,0,-2.7767,-2.7782,-2.789,-2.7913,-2.7946,-2.7933,-2.7959,-2.7978,-2.7979,-2.8095,-2.803,-2.8099,-2.8218,-2.8246,-2.8276,-2.8499,-2.8448,-2.8521,-2.8648,-2.8733,-2.8759,-2.8783,-2.8864,-2.8893,-2.8538,-2.8539,-2.8539,0,-2.7881,-2.7994,-2.7952,-2.8044,-2.8078,-2.8,-2.811,-2.8134,-2.8187,-2.8214,-2.8156,-2.8303,-2.8322,-2.847,-2.8524,-2.8551,-2.858,-2.8518,-2.8758,-2.8782,-2.8803,-2.8879,-2.891,-2.8547,-2.8546,-2.8545,-2.8544,0,-2.8134,-2.8213,-2.8296,-2.8347,-2.839,-2.8491,-2.8466,-2.8516,-2.8483,-2.8477,-2.8597,-2.8615,-2.8681,-2.8714,-2.8684,-2.8858,-2.8826,-2.8765,-2.8664,-2.8845,-2.8916,-2.8945,-2.856,-2.8557,-2.8554,-2.8552,0,0,-2.8432,-2.8457,-2.8489,-2.8511,-2.854,-2.8602,-2.8699,-2.8761,-2.8805,-2.8843,-2.8925,-2.9027,-2.897,-2.9004,-2.8976,-2.905,-2.9226,-2.8979,-2.8979,-2.9026,-2.9421,-2.9469,-2.9503,-2.9192,-2.9197,-2.9201,-2.9419,0,-2.8645,-2.881,-2.8776,-2.8939,-2.9013,-2.8939,-2.9024,-2.9052,-2.9049,-2.9112,-2.9108,-2.9182,-2.91,-2.912,-2.919,-2.919,-2.9305,-2.9174,-2.9269,-2.9273,-2.9264,-2.954,-2.9591,-2.9795,-2.9446,-2.9451,-2.9454,0,-2.8915,-2.8962,-2.9132,-2.915,-2.9179,-2.9256,-2.931,-2.9371,-2.9402,-2.9394,-2.9432,-2.939,-2.9488,-2.9385,-2.952,-2.9431,-2.9468,-2.9475,-2.9482,-2.9491,-2.9376,-2.9558,-2.9859,-2.989,-2.9497,-2.9494,-2.9491,0,-2.9118,-2.9223,-2.9339,-2.936,-2.9383,-2.9439,-2.9451,-2.9476,-2.9515,-2.9563,-2.9589,-2.9648,-2.9682,-2.9729,-2.9705,-2.9632,-2.9846,-2.974,-2.9844,-2.9845,-2.9894,-2.9892,-3.0207,-2.9915,-2.9915,-2.9914,-2.9914,0,-2.936,-2.9467,-2.943,-2.9502,-2.962,-2.9579,-2.9699,-2.9703,-2.9725,-2.9797,-2.9737,-2.9806,-2.9769,-2.9836,-2.9818,-2.9933,-2.9949,-2.9947,-2.9941,-2.9953,-2.9954,-2.9978,-2.9964,-2.9922,-2.9921,-2.9919,-2.9918,0,-2.9607,-2.9586,-2.9707,-2.9718,-2.9723,-2.9811,-2.9821,-2.9888,-2.9879,-2.9971,-2.9991,-2.9978,-3.0054,-3.0033,-3.0116,-3.0104,-3.025,-3.0226,-3.024,-3.0235,-3.034,-3.0331,-3.0683,-3.0728,-3.0407,-3.041,-3.0412,0,-2.9763,-2.9844,-2.9863,-2.9906,-2.9923,-2.9993,-3.0032,-2.9995,-3.0039,-3.008,-3.0143,-3.0213,-3.0267,-3.0392,-3.0391,-3.0454,-3.0432,-3.055,-3.0441,-3.0451,-3.0435,-3.0431,-3.044,-3.0573,-3.0577,-3.058,-3.0582,0,-3.0044,-3.0029,-3.0088,-3.0143,-3.0191,-3.0234,-3.027,-3.0309,-3.0275,-3.0328,-3.0403,-3.0445,-3.0528,-3.0599,-3.0657,-3.0671,-3.0623,-3.0616,-3.0644,-3.0658,-3.0664,-3.0663,-3.0301,-3.0609,-3.0606,-3.0604,-3.0603,-3.0602,-3.0252,-3.032,-3.0344,-3.0411,-3.0434,-3.047,-3.0534,-3.0532,-3.0594,-3.0658,-3.0632,-3.072,-3.0748,-3.082,-3.0842,-3.0911,-3.0866,-3.0906,-3.0916,-3.0927,-3.094,-3.0651,-3.0921,-3.092,-3.0919,-3.0919,-3.0918,0,-3.0531,-3.0542,-3.0604,-3.0656,-3.071,-3.0655,-3.0693,-3.0742,-3.0819,-3.0849,-3.0903,-3.099,-3.1058,-3.1062,-3.1126,-3.118,-3.116,-3.1199,-3.1195,-3.12,-3.0976,-3.0947,-3.1214,-3.1214,-3.1214,-3.1214,-3.1214,-3.1214,-3.0682,-3.0795,-3.0783,-3.0908,-3.0918,-3.1002,-3.1028,-3.1061,-3.1085,-3.1184,-3.124,-3.1241,-3.1261,-3.1326,-3.1387,-3.1386,-3.1413,-3.1461,-3.1453,-3.1245,-3.1215,-3.1187,-3.1159,-3.1467,-3.1468,-3.167,-3.1672,-3.1674]},{"header":{"parameterUnit":"m.s-1","parameterCategory":1,"la1":30.2991,"la2":30.254,"lo1":-89.0895,"lo2":-89.0444,"dx":0.0017,"dy":0.0017,"nx":28,"ny":28,"refTime":"2023-01-22T03:00:00:Z","depth":0,"parameterNumber":3,"parameterNumberName":"V-component_of_WINDS"},"data":[0,0,0,0,0,0,0,0,0,0,0,0,0,0,0,0,0,0,0,0,0,0,0,0,0,0,0,0,0,0,0,0,0,0,0,0,0,0,0,0,0,0,0,0,0,0,0,0,0,0,0,0,0,0,0,0,0,0,-3.2653,-3.2653,0,-3.2641,-3.2641,-3.264,-3.2582,-3.2581,-3.258,-3.2578,-3.2566,-3.2567,-3.2567,0,0,0,0,0,0,0,0,0,0,0,0,0,-3.2626,-3.2627,-3.2653,-3.2653,-3.2653,-3.2641,-3.2641,-3.264,-3.2583,-3.2581,-3.2579,-3.2578,-3.2565,-3.2566,-3.2568,0,0,0,0,0,0,0,0,0,0,0,0,0,-3.2628,-3.2627,-3.2653,-3.2623,-3.262,-3.2641,-3.2641,-3.264,-3.2583,-3.2581,-3.2579,-3.2577,-3.2565,-3.2566,-3.2568,-3.2617,0,0,-3.2572,-3.2573,0,0,0,0,0,0,0,0,-3.2628,-3.2629,-3.2627,-3.2625,-3.2622,-3.2611,-3.2626,-3.2633,-3.2584,-3.2597,-3.2578,-3.2576,-3.2582,-3.2582,-3.2584,-3.2617,-3.2616,-3.2572,-3.2573,-3.2574,-3.2574,0,0,0,0,0,0,0,-3.2628,-3.2629,-3.2648,-3.2627,-3.2624,-3.2609,-3.2607,-3.2627,-3.2601,-3.2596,-3.2591,-3.2591,-3.258,-3.2583,-3.2584,-3.2616,-3.2572,-3.2573,-3.2574,-3.2575,-3.2686,-3.2688,0,0,0,0,0,0,-3.2632,-3.263,-3.2649,-3.2648,-3.262,-3.2611,-3.2609,-3.2616,-3.2601,-3.2597,-3.2592,-3.2588,-3.2582,-3.2582,-3.2583,-3.2638,-3.2573,-3.2575,-3.2576,-3.2684,-3.2686,-3.2688,0,0,0,0,0,0,-3.2632,-3.2635,-3.2649,-3.2638,-3.2638,-3.2614,-3.2623,-3.2617,-3.262,-3.2598,-3.2594,-3.26,-3.258,-3.2581,-3.2609,-3.2637,-3.2575,-3.2577,-3.2681,-3.2684,-3.2687,-3.2749,0,0,0,0,0,0,-3.2631,-3.2635,-3.2654,-3.2638,-3.2639,-3.2675,-3.2624,-3.2619,-3.2622,-3.2617,-3.2604,-3.26,-3.2579,-3.2607,-3.261,-3.2637,-3.2578,-3.2678,-3.2683,-3.2686,-3.2745,-3.2754,-3.2763,0,0,0,0,0,-3.2631,-3.2672,-3.2655,-3.2658,-3.2662,-3.2677,-3.2677,-3.2652,-3.2625,-3.2643,-3.2629,-3.2601,-3.2634,-3.261,-3.2613,-3.2642,-3.2677,-3.2681,-3.2686,-3.2741,-3.2752,-3.2762,0,0,0,0,0,0,-3.2692,-3.267,-3.265,-3.2688,-3.2685,-3.2667,-3.269,-3.2665,-3.267,-3.2664,-3.2632,-3.263,-3.2661,-3.2655,-3.2629,-3.2688,-3.265,-3.2656,-3.2691,-3.2702,-3.271,-3.271,-3.2579,0,0,0,0,0,-3.2709,-3.2724,-3.2704,-3.2739,-3.2738,-3.2715,-3.272,-3.27,-3.2696,-3.2694,-3.2682,-3.2679,-3.2688,-3.2695,-3.2702,-3.2744,-3.2739,-3.2765,-3.2774,-3.2781,-3.2786,-3.2805,-3.2816,-3.2704,-3.2704,-3.2704,0,0,-3.2746,-3.2736,-3.2747,-3.2751,-3.2746,-3.276,-3.2714,-3.2732,-3.2742,-3.2697,-3.2721,-3.2713,-3.2707,-3.2741,-3.2756,-3.2736,-3.2816,-3.2787,-3.2794,-3.2794,-3.2811,-3.2822,-3.2831,-3.2707,-3.2707,-3.2706,0,0,-3.282,-3.2815,-3.2843,-3.2839,-3.2832,-3.2815,-3.2822,-3.2808,-3.28,-3.2825,-3.2791,-3.2803,-3.282,-3.2816,-3.2817,-3.2889,-3.2861,-3.2892,-3.2938,-3.2957,-3.2966,-3.2974,-3.2997,-3.3006,-3.2897,-3.2897,-3.2897,0,-3.2867,-3.2888,-3.286,-3.2879,-3.2881,-3.2841,-3.2868,-3.2866,-3.2862,-3.2864,-3.2843,-3.2862,-3.2855,-3.2887,-3.2905,-3.2907,-3.2913,-3.2892,-3.2967,-3.2974,-3.2981,-3.3003,-3.3012,-3.2901,-3.29,-3.29,-3.29,0,-3.2944,-3.2959,-3.2982,-3.2978,-3.2983,-3.3007,-3.2982,-3.299,-3.297,-3.2956,-3.298,-3.2971,-3.2975,-3.2982,-3.2963,-3.301,-3.2998,-3.2973,-3.2934,-3.2996,-3.3016,-3.3024,-3.2906,-3.2905,-3.2904,-3.2903,0,0,-3.3055,-3.3036,-3.3044,-3.3041,-3.303,-3.3041,-3.3063,-3.3066,-3.3073,-3.3072,-3.3087,-3.3103,-3.3078,-3.3079,-3.3059,-3.3077,-3.3131,-3.3048,-3.3048,-3.3062,-3.3181,-3.3199,-3.3209,-3.3114,-3.3116,-3.3117,-3.3181,0,-3.3124,-3.3158,-3.3134,-3.3172,-3.3184,-3.3147,-3.3165,-3.316,-3.3147,-3.3156,-3.3142,-3.3152,-3.3121,-3.312,-3.3136,-3.3122,-3.3155,-3.3117,-3.3127,-3.3128,-3.3128,-3.322,-3.3239,-3.3299,-3.3189,-3.319,-3.3191,0,-3.3209,-3.321,-3.325,-3.3234,-3.3239,-3.3256,-3.3256,-3.3265,-3.3258,-3.3248,-3.3248,-3.3224,-3.3243,-3.3206,-3.3231,-3.3206,-3.3209,-3.3203,-3.3204,-3.3202,-3.3162,-3.3218,-3.3318,-3.3326,-3.3204,-3.3203,-3.3202,0,-3.3283,-3.3295,-3.3319,-3.3318,-3.3302,-3.3315,-3.3308,-3.33,-3.3303,-3.3304,-3.3305,-3.3309,-3.331,-3.3313,-3.3289,-3.3265,-3.3316,-3.3279,-3.3307,-3.3307,-3.3318,-3.3317,-3.3417,-3.3324,-3.3324,-3.3323,-3.3323,0,-3.3361,-3.3386,-3.3352,-3.3367,-3.3393,-3.3365,-3.3392,-3.3382,-3.3375,-3.3386,-3.3355,-3.3366,-3.3336,-3.3344,-3.3327,-3.3349,-3.335,-3.3341,-3.3336,-3.3343,-3.3344,-3.3343,-3.3337,-3.3326,-3.3325,-3.3325,-3.3324,0,-3.3447,-3.3426,-3.3449,-3.3432,-3.3428,-3.3448,-3.3433,-3.3446,-3.3431,-3.3446,-3.3448,-3.3426,-3.3434,-3.3411,-3.3416,-3.3404,-3.3435,-3.3424,-3.3437,-3.3433,-3.3462,-3.3459,-3.3563,-3.3574,-3.3476,-3.3477,-3.3478,0,-3.3497,-3.3515,-3.3499,-3.3504,-3.35,-3.3509,-3.3512,-3.3485,-3.3489,-3.3482,-3.3496,-3.3501,-3.3504,-3.3519,-3.3502,-3.3505,-3.3493,-3.3529,-3.3493,-3.3499,-3.349,-3.3488,-3.3489,-3.3536,-3.3537,-3.3538,-3.3539,0,-3.3587,-3.3575,-3.358,-3.3581,-3.3585,-3.3585,-3.3583,-3.3589,-3.356,-3.3567,-3.3574,-3.3576,-3.3581,-3.3586,-3.3586,-3.3579,-3.3554,-3.3551,-3.3557,-3.3563,-3.3569,-3.3564,-3.3455,-3.3548,-3.3547,-3.3546,-3.3546,-3.3546,-3.3654,-3.3668,-3.3658,-3.3665,-3.366,-3.3658,-3.3669,-3.3655,-3.3661,-3.3662,-3.3646,-3.3657,-3.3649,-3.3646,-3.3641,-3.3649,-3.3632,-3.3642,-3.3644,-3.3646,-3.365,-3.357,-3.3649,-3.3649,-3.3649,-3.3648,-3.3648,0,-3.374,-3.3732,-3.3739,-3.3736,-3.374,-3.3717,-3.3713,-3.3718,-3.3728,-3.3723,-3.3726,-3.3734,-3.3739,-3.3723,-3.3725,-3.3734,-3.3722,-3.3735,-3.3733,-3.3731,-3.3666,-3.3659,-3.3744,-3.3744,-3.3744,-3.3744,-3.3744,-3.3744,-3.3785,-3.3806,-3.3794,-3.3811,-3.3803,-3.3813,-3.3812,-3.381,-3.3805,-3.3816,-3.3819,-3.3809,-3.3799,-3.38,-3.3803,-3.3798,-3.38,-3.3816,-3.3807,-3.3746,-3.3736,-3.3727,-3.3721,-3.3817,-3.3818,-3.3872,-3.3872,-3.3873]}]]